This is the latest recevied weather packets stored in our database for station/object EB2EMZ-3. If no packets are shown the sender has not sent any weather packets the latest 10 day(s).
| Time | Temp. | Humidity | Pressure | Rain* | Wind** | Luminosity | Snow |
|---|---|---|---|---|---|---|---|
| 1777897479 | 18.89° C | 80% | 1011.3 hPa | 0 mm | - | - | - |
| 1777897179 | 18.89° C | 80% | 1011.6 hPa | 0 mm | - | - | - |
| 1777896879 | 18.89° C | 80% | 1011.5 hPa | 0 mm | - | - | - |
| 1777896579 | 18.89° C | 79% | 1011.5 hPa | 0 mm | - | - | - |
| 1777896279 | 18.89° C | 79% | 1011.6 hPa | 0 mm | - | - | - |
| 1777895979 | 19.44° C | 78% | 1011.6 hPa | 0 mm | - | - | - |
| 1777895679 | 19.44° C | 76% | 1011.8 hPa | 0 mm | - | - | - |
| 1777895379 | 20° C | 75% | 1011.7 hPa | 0 mm | - | - | - |
| 1777895079 | 20.56° C | 74% | 1011.6 hPa | 0 mm | - | - | - |
| 1777894779 | 20.56° C | 73% | 1011.6 hPa | 0 mm | - | - | - |
| 1777894479 | 21.11° C | 72% | 1011.7 hPa | 0 mm | - | - | - |
| 1777894179 | 21.11° C | 72% | 1011.6 hPa | 0 mm | - | - | - |
| 1777893879 | 21.67° C | 72% | 1011.7 hPa | 0 mm | - | - | - |
| 1777893579 | 21.67° C | 72% | 1011.7 hPa | 0 mm | - | - | - |
| 1777893280 | 21.67° C | 72% | 1011.6 hPa | 0 mm | - | - | - |
| 1777892979 | 21.11° C | 75% | 1011.6 hPa | 0 mm | - | - | - |
| 1777892679 | 21.11° C | 75% | 1011.6 hPa | 0 mm | - | - | - |
| 1777892380 | 21.11° C | 75% | 1011.6 hPa | 0 mm | - | - | - |
| 1777892079 | 20.56° C | 75% | 1011.6 hPa | 0 mm | - | - | - |
| 1777891780 | 20.56° C | 75% | 1011.7 hPa | 0 mm | - | - | - |
| 1777891479 | 20.56° C | 75% | 1011.7 hPa | 0 mm | - | - | - |
| 1777891180 | 20.56° C | 75% | 1011.8 hPa | 0 mm | - | - | - |
| 1777890879 | 20° C | 75% | 1011.9 hPa | 0 mm | - | - | - |
| 1777890580 | 20° C | 75% | 1011.9 hPa | 0 mm | - | - | - |
| 1777890280 | 20° C | 75% | 1011.9 hPa | 0 mm | - | - | - |
* Rain latest hour (hover to see other rain measurements)
** Current wind speed in m/s (hover to see current wind gust speed)